Regional Weather Roundup
Issued by NWS Grand Forks, ND

Home | Current Version | Previous Version | Text Only | Print | Product List | Glossary On
Versions: 1 2 3 4 5 6 7 8 9 10 11 12 13 14 15 16 17 18 19 20 21 22 23 24 25 26 27 28 29 30 31 32 33 34 35 36 37 38 39 40 41 42 43 44 45 46 47 48 49 50
000
ASUS43 KFGF 012310
RWRFGF
PRAIRIE TO PINES  WEATHER ROUNDUP
NATIONAL WEATHER SERVICE EASTERN NORTH DAKOTA/GRAND FORKS ND
500 PM CST SUN FEB 01 2015

 **SATELLITE DATA USED TO AUGMENT SKY COVER AT AUTOMATED STATIONS**
 *****  WEATHER ACROSS EASTERN NORTH DAKOTA  *****

CITY           SKY/WX    TMP DP  RH WIND       PRES   REMARKS
GRAND FORKS    CLEAR      2 -12  52 CALM      30.43F
GRAND FRKS AFB CLEAR      2 -15  44 NW3       30.43F
GRAND FRKS NWS   N/A      0 N/A N/A N2          N/A
DEVILS LAKE    CLEAR      1 -15  46 W9        30.34F WCI -14
FARGO          CLEAR      4 -13  45 N9        30.42F WCI -10
WAHPETON ARPT  CLEAR      5 -11  47 N13G18    30.40S WCI -12
$$

 ***** WEATHER ACROSS CENTRAL AND WESTERN NORTH DAKOTA  *****

CITY           SKY/WX    TMP DP  RH WIND       PRES   REMARKS
BISMARCK       CLEAR      4 -13  45 W7        30.36F WCI  -8
MINOT          CLEAR      4 -10  52 SW8       30.29F WCI  -9
JAMESTOWN      CLEAR      2 -10  57 W10       30.37R WCI -14
MINOT AFB      CLEAR      5  -5  61 S7        30.29F WCI  -7
GARRISON         N/A      3 -10  54 SW6       30.29F WCI  -8
WILLISTON      CLEAR      7  -5  57 SW7       30.24F WCI  -5
DICKINSON      CLEAR      5  -3  69 SW8       30.20F WCI  -8
HETTINGER      CLEAR      6   1  80 SW5       30.24F WCI  -3
$$

 *****  OTHER AIRPORT OBSERVATIONS IN OUR AREA  *****

CITY           SKY/WX    TMP DP  RH WIND       PRES   REMARKS
WALHALLA         N/A      0 -13  55 W7        30.40F WCI -13
GRAFTON AIRPOR NOT AVBL
VALLEY CITY AR FAIR       3 -11  51 NW8       30.38R WCI -10
CANDO          FAIR       0 -13  55 W9        30.34F WCI -16
CAVALIER APRT  FAIR       0 -13  55 W6        30.41F WCI -12
GWINNER        CLEAR      9  -9  43 N8        30.39F WCI  -4
ROLLA          FAIR      -2 -17  50 SW14      30.29F WCI -21
 ***** THE ABOVE OBSERVATIONS ARE NON NWS ARE NOT QUALITY
       CONTROLLED AND MAY MIS-REPORT RAIN FOR SNOW...
$$

  *****  WEATHER ACROSS NORTHERN MINNESOTA  *****

CITY           SKY/WX    TMP DP  RH WIND       PRES   REMARKS
FLAG ISLAND    CLEAR     -9 -15  77 S6        30.36F WCI -23
WARROAD        CLEAR     -4 -15  59 SW7       30.38S WCI -18
ROSEAU         CLEAR      0 -13  55 W7        30.38F WCI -13
HALLOCK        CLEAR     -2 -13  60 CALM      30.42F
THF RVR FALLS  CLEAR      0 -13  55 NW5       30.39S WCI -10
BAUDETTE       CLEAR     -5 -19  51 NW8       30.35F WCI -20
WASKISH        CLEAR      0 -11  60 CALM      30.34F
CROOKSTON      CLEAR      0 -11  60 N8        30.44S WCI -15
STEPHEN NDAWN    N/A     -2 -13  60 NW3         N/A
GREENBUSH NDAW   N/A     -4 -13  65 W8          N/A  WCI -19
$$
  *****  WEATHER ACROSS CENTRAL AND WEST MINNESOTA  *****

CITY           SKY/WX    TMP DP  RH WIND       PRES   REMARKS
FOSSTON        CLEAR      1 -11  55 NW6       30.36F WCI -10
BEMIDJI        CLEAR      0 -14  52 CALM      30.32F
PARK RAPIDS    CLEAR      6 -14  39 N8        30.29F WCI  -7
ELBOW LAKE     FAIR       6  -7  53 N10       30.33S WCI  -8
WADENA         CLEAR      7 -11  43 N9        30.30S WCI  -7
DETROIT LAKES  CLEAR      3  -8  60 N6        30.34F WCI  -8
MOORHEAD       CLEAR      3 -11  51 N10       30.42S WCI -12
FERGUS FALLS   CLEAR      5 -11  47 N10       30.39S WCI -10
MORRIS MN      CLEAR     10  -6  48 N20       30.32S WCI  -8
STAPLES        FAIR       7 -15  36 N14       30.30R WCI -10
$$
  *****  WEATHER ELSEWHERE ACROSS MINNESOTA  *****

CITY           SKY/WX    TMP DP  RH WIND       PRES   REMARKS
DULUTH         PTCLDY     7 -14  37 N9        30.23F WCI  -7
INTRNTL FALLS  CLEAR     -2 -17  49 NW6       30.33F WCI -14
ELY            CLEAR      0 -17  46 NW3       30.26F
CLOQUET        CLEAR      7 -17  33 N7        30.25F WCI  -5
WHEATON        CLEAR      3  -9  55 NW12      30.40S WCI -13
BRAINERD       CLEAR      7 -11  43 N12       30.29S WCI  -8
HIBBING        CLEAR      3 -16  40 N9        30.28F WCI -12
ALEXANDRIA     CLEAR      9 -10  42 N12       30.28S WCI  -6
SAINT CLOUD    CLEAR     12 -12  33 N12       30.27R WCI  -2
MINNEAPOLIS    MOCLDY    16   2  54 N15       30.22R WCI   1
$$

  *****  WEATHER ACROSS SOUTH DAKOTA  *****

CITY           SKY/WX    TMP DP  RH WIND       PRES   REMARKS
SIOUX FALLS    MOCLDY     9   2  73 N16       30.28R WCI  -8
BROOKINGS      NOT AVBL
WATERTOWN      CLEAR      6  -4  63 N15       30.29R WCI -12
HURON          CLEAR      5  -6  60 N17       30.39R WCI -14
SISSETON         N/A      6 -10  47 N17       30.37S WCI -13
ABERDEEN       CLEAR      6  -8  52 N12       30.39F WCI  -9
MITCHELL       CLEAR      5  -4  66 N15       30.38S WCI -13
PIERRE         CLEAR      6  -8  52 NW10      30.37F WCI  -9
MOBRIDGE       CLEAR      6  -9  50 NW7       30.34F WCI  -6
RAPID CITY     CLEAR     13   7  77 E3        30.24F
$$

  *****  SOME WEATHER IN NEARBY STATES *****

CITY           SKY/WX    TMP DP  RH WIND       PRES   REMARKS
GLASGOW MT     CLEAR     10   3  73 SE14      30.12F WCI  -6
GREAT FALLS MT CLOUDY    30  23  75 SW12      29.90F WCI  20
CHEYENNE WY    SUNNY     25   9  50 N12       30.08S WCI  14
SCOTTSBLUFF NE SUNNY     17   9  70 E8        30.20F WCI   7
OMAHA NE       BLWGSNOW  13   8  81 N26G38    30.18R VSB 1/4 WCI  -7
DES MOINES IA  LGT SNOW  18  12  77 N18G29    30.05R VSB 1   WCI   2
DAVENPORT IA   HVY SNOW  17  12  80 N30G37    29.86R VSB 1/4 WCI  -3
CHICAGO IL     HVY SNOW  21  19  92 NE24G33   29.77R VSB 1/8 WCI   4
EAU CLAIRE WI  CLOUDY    15   0  51 N9        30.16R WCI   3
LA CROSSE WI   CLOUDY    16   5  62 N14       30.13R WCI   2
$$

  *****  SOME NATIONAL WEATHER *****

CITY           SKY/WX    TMP DP  RH WIND       PRES   REMARKS
LA GUARDIA NY  CLOUDY    35  20  54 W5        30.12F
RALEIGH NC     CLOUDY    53  28  38 S9        30.04F
ATLANTA GA     LGT RAIN  54  51  90 S14       29.92F
NEW ORLEANS LA MOCLDY    71  60  68 SW12      29.90S
OKLAHOMA CITY  PTCLDY    37  20  50 N31G38    30.14R
ALBUQUERQUE NM MOSUNNY   50  30  46 NW7       30.11R
SALT LAKE CITY CLOUDY    48  28  46 CALM      30.17F
LOS ANGELES CA PTSUNNY   64  57  78 W13       30.06S
BOISE ID       CLOUDY    40  34  79 SE13      30.11F
SEATTLE WA     CLOUDY    46  43  89 S7        30.04S
$$

*** WEATHER ACROSS MANITOBA...SASKATCHEWAN AND ONTARIO ***
                ***ONTARIO***

CITY           SKY/WX    TMP DP  RH WIND       PRES   REMARKS
GERALDTON      CLEAR     -9 -17  70 W5        30.22F WCI -21
THUNDER BAY    PTCLDY     1 -17  42 NW6       30.31F WCI -10
SIOUX LOOKOUT  PTCLDY   -11 -20  64 NW5       30.28F WCI -23
TORONTO        LGT SNOW  10   5  79 NE12      30.10F WCI  -4
BIG TROUT LK   CLOUDY   -13 -20  70 W6        30.17F WCI -27
PICKLE LAKE    CLEAR     -9 -17  70 W8        30.20F WCI -26
DRYDEN         CLEAR     -6 -17  59 W6        30.29F WCI -18
KENORA         CLEAR     -8 -18  59 SW7       30.31F WCI -22
$$
                *** MANITOBA***

CITY           SKY/WX    TMP DP  RH WIND       PRES   REMARKS
BRANDON        PTCLDY    -6 -15  65 W8        30.31F WCI -21
DAUPHIN        CLEAR     -4 -15  59 W7        30.27F WCI -18
ISLAND LAKE    CLOUDY    -6 -17  59 W12G17    30.21F WCI -24
PILOT MOUND      N/A     -6 -15  65 SW7         N/A  WCI -20
THE PAS          N/A      0 -11  60 S6        30.16F WCI -12
THOMPSON       CRYSTALS  -9 -20  59 SW6       30.13F WCI -23
WINNIPEG       CLEAR     -4 -17  54 S10       30.40F WCI -21
LYNN LAKE      CLOUDY    -9 -17  70 SW6       30.02F WCI -23
CHURCHILL      CRYSTALS -22 -27  76 W7        30.10F WCI -39
GILLAM         FLURRIES -13 -22  64 SW9       30.13F WCI -31
$$
                ***SASKATCHEWAN***

CITY           SKY/WX    TMP DP  RH WIND       PRES   REMARKS
ESTEVAN        MOCLDY     7  -2  66 S9        30.21F WCI  -7
KINDERSLEY     MOCLDY     9   1  72 SE6       30.00F WCI  -1
LLOYDMINSTER   MOCLDY     7   1  78 NW6       30.02F WCI  -3
PRINCE ALBERT  FLURRIES   5  -2  72 SW9       30.09F WCI  -9
REGINA         MOCLDY     5  -2  72 SE12      30.13F WCI -11
YORKTON        CLOUDY     1  -8  66 S8        30.17F WCI -12
N. BATTLEFORD  CLEAR      9   1  72 W6        30.08F WCI  -1
LA RONGE       LGT SNOW  -4  -9  77 CALM      30.08F
SASKATOON      MOCLDY     7   0  72 SW7       30.09F WCI  -5
SWIFT CURRENT  CLEAR     10   5  79 S13G18    29.98F WCI  -5
$$
NOTE: THESE ARE AUTOMATED STATIONS WITH LIMITED QUALITY CONTROL
      "FAIR" INDICATES FEW OR NO CLOUDS BELOW 12,000 FEET WITH NO
      SIGNIFICANT WEATHER AND/OR OBSTRUCTIONS TO VISIBILITY.
      SKY/WX - SKY CONDITION AND SIGNIFICANT WEATHER.
      TMP - AIR TEMPERATURE.    DP   - DEWPOINT TEMPERATURE.
      RH  - RELATIVE HUMIDITY.  PRES - PRESSURE.
      HX  - HEAT INDEX.         WCI  - WIND CHILL INDEX.
$



USA.gov is the U.S. government's official web portal to all federal, state and local government web resources and services.